NKS462 KDTW-KLGA

Flight info

Callsign NKS462
Flight time 1h 12m
Altitude 35000
Route PAVYL3 ESSBE SPYDY Q186 WEVEL ETG MIP4
Aircraft A321/M-SDE3FGHIRWY/LB1

Departure

Time 2026-05-04 18:54
Airport Detroit Metropolitan Wayne County Airport (KDTW)

Arrival

Time 2026-05-04 20:07
Airport LaGuardia Airport (KLGA)
Time Latitude Longitude Altitude Speed Heading
2026-05-04 18:25 42.22306 -83.35201 650 ft 0 kts 162°
2026-05-04 18:28 42.22307 -83.35201 649 ft 0 kts 162°
2026-05-04 18:34 42.22307 -83.35202 649 ft 0 kts 162°
2026-05-04 18:35 42.22308 -83.35202 649 ft 0 kts 162°
2026-05-04 18:40 42.22309 -83.35202 652 ft 2 kts 162°
2026-05-04 18:41 42.22327 -83.35210 651 ft 3 kts 162°
2026-05-04 18:41 42.22345 -83.35218 652 ft 3 kts 162°
2026-05-04 18:41 42.22363 -83.35222 651 ft 3 kts 157°
2026-05-04 18:41 42.22380 -83.35234 651 ft 3 kts 185°
2026-05-04 18:42 42.22391 -83.35231 651 ft 0 kts 220°
2026-05-04 18:45 42.22390 -83.35232 651 ft 0 kts 220°
2026-05-04 18:45 42.22373 -83.35252 652 ft 5 kts 220°
2026-05-04 18:45 42.22352 -83.35277 651 ft 4 kts 225°
2026-05-04 18:46 42.22330 -83.35301 650 ft 4 kts 219°
2026-05-04 18:46 42.22286 -83.35341 650 ft 10 kts 213°
2026-05-04 18:46 42.22228 -83.35391 649 ft 10 kts 211°
2026-05-04 18:46 42.22164 -83.35440 649 ft 15 kts 208°
2026-05-04 18:47 42.22062 -83.35514 649 ft 17 kts 209°
2026-05-04 18:47 42.21963 -83.35580 649 ft 15 kts 192°
2026-05-04 18:47 42.21889 -83.35511 650 ft 14 kts 105°
2026-05-04 18:47 42.21890 -83.35377 649 ft 14 kts 91°
2026-05-04 18:48 42.21900 -83.35249 649 ft 15 kts 90°
2026-05-04 18:48 42.21902 -83.35099 649 ft 16 kts 88°
2026-05-04 18:48 42.21893 -83.34949 651 ft 16 kts 124°
2026-05-04 18:48 42.21836 -83.34839 650 ft 15 kts 91°
2026-05-04 18:49 42.21836 -83.34694 650 ft 16 kts 88°
2026-05-04 18:49 42.21841 -83.34546 651 ft 16 kts 75°
2026-05-04 18:49 42.21923 -83.34453 650 ft 16 kts 30°
2026-05-04 18:49 42.22027 -83.34374 650 ft 18 kts 28°
2026-05-04 18:50 42.22138 -83.34294 649 ft 19 kts 28°
2026-05-04 18:50 42.22253 -83.34209 650 ft 19 kts 30°
2026-05-04 18:50 42.22371 -83.34122 650 ft 20 kts 28°
2026-05-04 18:50 42.22492 -83.34032 650 ft 20 kts 28°
2026-05-04 18:51 42.22617 -83.33942 650 ft 21 kts 28°
2026-05-04 18:51 42.22746 -83.33849 650 ft 21 kts 29°
2026-05-04 18:51 42.22840 -83.33773 649 ft 12 kts 36°
2026-05-04 18:51 42.22830 -83.33671 650 ft 12 kts 127°
2026-05-04 18:52 42.22764 -83.33667 650 ft 10 kts 208°
2026-05-04 18:52 42.22758 -83.33671 651 ft 0 kts 208°
2026-05-04 18:53 42.22691 -83.33720 652 ft 39 kts 208°
2026-05-04 18:53 42.22254 -83.34041 651 ft 102 kts 208°
2026-05-04 18:54 42.21481 -83.34603 755 ft 140 kts 208°
2026-05-04 18:54 42.20621 -83.35172 1343 ft 140 kts 206°
2026-05-04 18:54 42.19757 -83.35793 1865 ft 140 kts 209°
2026-05-04 18:54 42.18773 -83.36271 1941 ft 166 kts 184°
2026-05-04 18:55 42.17580 -83.36129 2154 ft 176 kts 180°
2026-05-04 18:55 42.14995 -83.35987 2451 ft 201 kts 182°
2026-05-04 18:55 42.13543 -83.35935 2501 ft 217 kts 182°
2026-05-04 18:56 42.11970 -83.35871 2543 ft 236 kts 182°
2026-05-04 18:56 42.10306 -83.35808 2772 ft 246 kts 182°
2026-05-04 18:56 42.08655 -83.35729 3204 ft 247 kts 181°
2026-05-04 18:56 42.06930 -83.35614 3622 ft 249 kts 179°
2026-05-04 18:57 42.05243 -83.34953 4027 ft 260 kts 156°
2026-05-04 18:57 42.03842 -83.33346 4504 ft 274 kts 131°
2026-05-04 18:57 42.03039 -83.30964 5158 ft 289 kts 107°
2026-05-04 18:57 42.02638 -83.28278 5802 ft 296 kts 104°
2026-05-04 18:58 42.02246 -83.25530 6413 ft 302 kts 104°
2026-05-04 18:58 42.01850 -83.22730 6872 ft 308 kts 104°
2026-05-04 18:58 42.01483 -83.19883 6974 ft 309 kts 98°
2026-05-04 18:58 42.01539 -83.16976 7087 ft 316 kts 81°
2026-05-04 18:59 42.01969 -83.14082 7830 ft 315 kts 80°
2026-05-04 18:59 42.02375 -83.11214 8549 ft 317 kts 81°
2026-05-04 18:59 42.02929 -83.08303 9018 ft 324 kts 71°
2026-05-04 18:59 42.03648 -83.05438 9764 ft 324 kts 71°
2026-05-04 19:00 42.04376 -83.02550 10276 ft 333 kts 71°
2026-05-04 19:00 42.05146 -82.99503 10413 ft 355 kts 71°
2026-05-04 19:00 42.05965 -82.96261 10540 ft 376 kts 71°
2026-05-04 19:00 42.06832 -82.92837 10694 ft 394 kts 71°
2026-05-04 19:01 42.07725 -82.89309 11156 ft 401 kts 71°
2026-05-04 19:01 42.08625 -82.85740 11743 ft 405 kts 71°
2026-05-04 19:01 42.09535 -82.82129 12331 ft 409 kts 71°
2026-05-04 19:01 42.10450 -82.78486 12926 ft 413 kts 71°
2026-05-04 19:02 42.11371 -82.74812 13541 ft 416 kts 71°
2026-05-04 19:02 42.12285 -82.71157 14074 ft 419 kts 71°
2026-05-04 19:02 42.13219 -82.67426 14635 ft 422 kts 71°
2026-05-04 19:02 42.14033 -82.63608 15168 ft 425 kts 79°
2026-05-04 19:03 42.14382 -82.59650 15714 ft 427 kts 89°
2026-05-04 19:03 42.14367 -82.55628 16252 ft 430 kts 92°
2026-05-04 19:03 42.14333 -82.51580 16796 ft 434 kts 91°
2026-05-04 19:03 42.14305 -82.47505 17336 ft 437 kts 91°
2026-05-04 19:04 42.14099 -82.43412 17860 ft 439 kts 99°
2026-05-04 19:04 42.13604 -82.39341 18343 ft 442 kts 101°
2026-05-04 19:04 42.13092 -82.35232 18789 ft 445 kts 101°
2026-05-04 19:04 42.12574 -82.31099 19227 ft 449 kts 101°
2026-05-04 19:05 42.12049 -82.26940 19663 ft 452 kts 101°
2026-05-04 19:05 42.11515 -82.22743 20096 ft 455 kts 101°
2026-05-04 19:05 42.10980 -82.18533 20514 ft 458 kts 100°
2026-05-04 19:05 42.10443 -82.14292 20930 ft 461 kts 100°
2026-05-04 19:06 42.09905 -82.10025 21342 ft 464 kts 100°
2026-05-04 19:06 42.09362 -82.05731 21742 ft 467 kts 100°
2026-05-04 19:06 42.08813 -82.01416 22136 ft 470 kts 100°
2026-05-04 19:06 42.08252 -81.97062 22528 ft 472 kts 100°
2026-05-04 19:07 42.07694 -81.92751 22915 ft 475 kts 100°
2026-05-04 19:07 42.07008 -81.88393 23285 ft 477 kts 107°
2026-05-04 19:07 42.05813 -81.84224 23606 ft 478 kts 118°
2026-05-04 19:07 42.04108 -81.80394 23940 ft 477 kts 129°
2026-05-04 19:08 42.02065 -81.77173 24248 ft 475 kts 139°
2026-05-04 19:08 41.99545 -81.74327 24574 ft 472 kts 149°
2026-05-04 19:08 41.96741 -81.72063 24896 ft 470 kts 155°
2026-05-04 19:08 41.93863 -81.69951 25224 ft 472 kts 155°
2026-05-04 19:09 41.90972 -81.67830 25534 ft 474 kts 155°
2026-05-04 19:09 41.88069 -81.65696 25832 ft 476 kts 154°
2026-05-04 19:09 41.85153 -81.63551 26153 ft 478 kts 155°
2026-05-04 19:09 41.82229 -81.61404 26458 ft 480 kts 155°
2026-05-04 19:10 41.79290 -81.59249 26762 ft 482 kts 154°
2026-05-04 19:10 41.76379 -81.57113 27071 ft 484 kts 154°
2026-05-04 19:10 41.73413 -81.54943 27394 ft 486 kts 154°
2026-05-04 19:10 41.70433 -81.52765 27702 ft 488 kts 154°
2026-05-04 19:11 41.67444 -81.50582 28044 ft 489 kts 154°
2026-05-04 19:11 41.64456 -81.48401 28481 ft 487 kts 154°
2026-05-04 19:11 41.61548 -81.46075 28934 ft 488 kts 147°
2026-05-04 19:11 41.58943 -81.43144 29349 ft 491 kts 136°
2026-05-04 19:12 41.56776 -81.39688 29760 ft 492 kts 125°
2026-05-04 19:12 41.53899 -81.31451 30436 ft 491 kts 104°
2026-05-04 19:12 41.53285 -81.26981 30751 ft 490 kts 95°
2026-05-04 19:13 41.52884 -81.22469 31062 ft 489 kts 95°
2026-05-04 19:13 41.52475 -81.17960 31400 ft 489 kts 95°
2026-05-04 19:13 41.52062 -81.13456 31738 ft 488 kts 95°
2026-05-04 19:13 41.51646 -81.08957 32069 ft 488 kts 95°
2026-05-04 19:14 41.51225 -81.04467 32404 ft 487 kts 95°
2026-05-04 19:14 41.50802 -80.99988 32727 ft 486 kts 95°
2026-05-04 19:14 41.50378 -80.95513 33056 ft 486 kts 95°
2026-05-04 19:14 41.49953 -80.91038 33377 ft 485 kts 95°
2026-05-04 19:15 41.49529 -80.86584 33747 ft 483 kts 95°
2026-05-04 19:15 41.49105 -80.82151 34048 ft 482 kts 95°
2026-05-04 19:15 41.48681 -80.77709 34290 ft 482 kts 95°
2026-05-04 19:15 41.48257 -80.73273 34536 ft 483 kts 95°
2026-05-04 19:16 41.47832 -80.68835 34753 ft 484 kts 95°
2026-05-04 19:16 41.46970 -80.59915 34803 ft 485 kts 96°
2026-05-04 19:17 41.46093 -80.51006 34807 ft 484 kts 96°
2026-05-04 19:17 41.45218 -80.42111 34820 ft 484 kts 95°
2026-05-04 19:18 41.44347 -80.33270 34818 ft 484 kts 96°
2026-05-04 19:18 41.43454 -80.24374 34838 ft 484 kts 96°
2026-05-04 19:19 41.42556 -80.15474 34860 ft 484 kts 96°
2026-05-04 19:19 41.41657 -80.06582 34862 ft 484 kts 95°
2026-05-04 19:20 41.40794 -79.97680 34865 ft 484 kts 95°
2026-05-04 19:20 41.39950 -79.88781 34865 ft 484 kts 95°
2026-05-04 19:21 41.39087 -79.79886 34867 ft 484 kts 95°
2026-05-04 19:21 41.38198 -79.70995 34871 ft 484 kts 95°
2026-05-04 19:22 41.37302 -79.62107 34858 ft 484 kts 95°
2026-05-04 19:22 41.36407 -79.53228 34854 ft 484 kts 95°
2026-05-04 19:23 41.35511 -79.44354 34851 ft 484 kts 95°
2026-05-04 19:23 41.34609 -79.35539 34864 ft 484 kts 96°
2026-05-04 19:24 41.33693 -79.26660 34861 ft 484 kts 95°
2026-05-04 19:24 41.32777 -79.17792 34865 ft 484 kts 95°
2026-05-04 19:25 41.31855 -79.08924 34866 ft 484 kts 95°
2026-05-04 19:25 41.30922 -79.00053 34874 ft 484 kts 95°
2026-05-04 19:26 41.29972 -78.91243 34873 ft 484 kts 96°
2026-05-04 19:26 41.29023 -78.82375 34875 ft 484 kts 96°
2026-05-04 19:27 41.28066 -78.73498 34856 ft 484 kts 96°
2026-05-04 19:27 41.27263 -78.66124 34877 ft 484 kts 95°
2026-05-04 19:28 41.26293 -78.57261 34871 ft 484 kts 95°
2026-05-04 19:28 41.25320 -78.48403 34873 ft 484 kts 95°
2026-05-04 19:29 41.24344 -78.39552 34875 ft 484 kts 96°
2026-05-04 19:29 41.23352 -78.30704 34880 ft 484 kts 96°
2026-05-04 19:30 41.22357 -78.21860 34879 ft 484 kts 96°
2026-05-04 19:30 41.21350 -78.13017 34878 ft 484 kts 96°
2026-05-04 19:31 41.20283 -78.04180 34871 ft 485 kts 97°
2026-05-04 19:31 41.19166 -77.95353 34882 ft 485 kts 96°
2026-05-04 19:32 41.18044 -77.86513 34877 ft 485 kts 97°
2026-05-04 19:32 41.16926 -77.77691 34869 ft 485 kts 96°
2026-05-04 19:33 41.15827 -77.68929 34866 ft 485 kts 96°
2026-05-04 19:33 41.14710 -77.60104 34867 ft 485 kts 97°
2026-05-04 19:34 41.13576 -77.51269 34871 ft 485 kts 97°
2026-05-04 19:34 41.12440 -77.42441 34869 ft 485 kts 97°
2026-05-04 19:35 41.11292 -77.33602 34870 ft 486 kts 97°
2026-05-04 19:35 41.10136 -77.24776 34869 ft 486 kts 97°
2026-05-04 19:36 41.08975 -77.15953 34874 ft 486 kts 97°
2026-05-04 19:36 41.07820 -77.07175 34873 ft 486 kts 97°
2026-05-04 19:37 41.06646 -76.98352 34875 ft 486 kts 97°
2026-05-04 19:37 41.05458 -76.89529 34877 ft 486 kts 97°
2026-05-04 19:38 41.04270 -76.80711 34897 ft 486 kts 97°
2026-05-04 19:38 41.03078 -76.71893 34898 ft 486 kts 97°
2026-05-04 19:39 41.01565 -76.63226 34903 ft 488 kts 105°
2026-05-04 19:39 40.99498 -76.54656 34903 ft 488 kts 105°
2026-05-04 19:40 40.97437 -76.46097 34901 ft 489 kts 105°
2026-05-04 19:40 40.95369 -76.37527 34919 ft 489 kts 105°
2026-05-04 19:41 40.93299 -76.28955 34933 ft 489 kts 105°
2026-05-04 19:41 40.91219 -76.20393 34944 ft 489 kts 105°
2026-05-04 19:42 40.89129 -76.11842 34955 ft 489 kts 105°
2026-05-04 19:42 40.87033 -76.03297 34956 ft 489 kts 105°
2026-05-04 19:43 40.84933 -75.94737 34955 ft 489 kts 105°
2026-05-04 19:43 40.82824 -75.86197 34938 ft 489 kts 105°
2026-05-04 19:44 40.80702 -75.77663 34948 ft 489 kts 105°
2026-05-04 19:44 40.78592 -75.69186 34947 ft 489 kts 105°
2026-05-04 19:44 40.77540 -75.64944 34748 ft 487 kts 105°
2026-05-04 19:45 40.76487 -75.60704 34188 ft 486 kts 105°
2026-05-04 19:45 40.75436 -75.56487 33573 ft 486 kts 105°
2026-05-04 19:45 40.74372 -75.52240 32862 ft 487 kts 105°
2026-05-04 19:45 40.73306 -75.47998 32115 ft 489 kts 106°
2026-05-04 19:46 40.72254 -75.43724 31354 ft 491 kts 105°
2026-05-04 19:46 40.71297 -75.39395 30592 ft 493 kts 103°
2026-05-04 19:46 40.70424 -75.35009 29799 ft 495 kts 102°
2026-05-04 19:46 40.69600 -75.30593 28902 ft 497 kts 102°
2026-05-04 19:47 40.68784 -75.26158 28012 ft 499 kts 102°
2026-05-04 19:47 40.67946 -75.21720 27344 ft 497 kts 104°
2026-05-04 19:47 40.66787 -75.17450 26745 ft 494 kts 114°
2026-05-04 19:47 40.65139 -75.13498 26125 ft 490 kts 123°
2026-05-04 19:48 40.63154 -75.10050 25539 ft 485 kts 132°
2026-05-04 19:48 40.60805 -75.06705 24925 ft 481 kts 134°
2026-05-04 19:48 40.58595 -75.03423 24359 ft 477 kts 128°
2026-05-04 19:48 40.56762 -74.99810 23783 ft 473 kts 118°
2026-05-04 19:49 40.55368 -74.95916 23162 ft 469 kts 110°
2026-05-04 19:49 40.54203 -74.91934 22512 ft 465 kts 110°
2026-05-04 19:49 40.53045 -74.88044 21896 ft 461 kts 111°
2026-05-04 19:49 40.51888 -74.84206 21289 ft 456 kts 111°
2026-05-04 19:50 40.50718 -74.80342 20720 ft 452 kts 111°
2026-05-04 19:50 40.49563 -74.76521 20145 ft 449 kts 111°
2026-05-04 19:50 40.48417 -74.72726 19608 ft 445 kts 111°
2026-05-04 19:50 40.47281 -74.68962 19092 ft 442 kts 112°
2026-05-04 19:51 40.46155 -74.65227 18596 ft 438 kts 112°
2026-05-04 19:51 40.45038 -74.61519 18112 ft 435 kts 111°
2026-05-04 19:51 40.44189 -74.57724 17582 ft 431 kts 100°
2026-05-04 19:51 40.43888 -74.53827 17049 ft 427 kts 89°
2026-05-04 19:52 40.44136 -74.49979 16507 ft 421 kts 77°
2026-05-04 19:52 40.44895 -74.46300 15974 ft 415 kts 68°
2026-05-04 19:52 40.45855 -74.42780 15444 ft 412 kts 68°
2026-05-04 19:52 40.46808 -74.39246 14911 ft 409 kts 68°
2026-05-04 19:53 40.47748 -74.35733 14369 ft 406 kts 69°
2026-05-04 19:53 40.48680 -74.32246 13858 ft 403 kts 69°
2026-05-04 19:53 40.49603 -74.28777 13306 ft 400 kts 69°
2026-05-04 19:53 40.50518 -74.25343 12749 ft 396 kts 69°
2026-05-04 19:54 40.51428 -74.21947 12196 ft 392 kts 69°
2026-05-04 19:54 40.52330 -74.18584 11654 ft 388 kts 69°
2026-05-04 19:54 40.53221 -74.15242 11125 ft 385 kts 69°
2026-05-04 19:54 40.54088 -74.11979 10965 ft 370 kts 69°
2026-05-04 19:55 40.55052 -74.08924 10838 ft 354 kts 59°
2026-05-04 19:55 40.56405 -74.06320 10714 ft 337 kts 46°
2026-05-04 19:55 40.58051 -74.04235 10606 ft 321 kts 34°
2026-05-04 19:55 40.59864 -74.02622 10484 ft 308 kts 29°
2026-05-04 19:56 40.61648 -74.01112 10346 ft 304 kts 31°
2026-05-04 19:56 40.63417 -73.99612 9903 ft 300 kts 28°
2026-05-04 19:56 40.65173 -73.98143 9560 ft 298 kts 28°
2026-05-04 19:56 40.66904 -73.96714 9201 ft 296 kts 28°
2026-05-04 19:57 40.68646 -73.95283 8842 ft 295 kts 28°
2026-05-04 19:57 40.70384 -73.93854 8461 ft 294 kts 28°
2026-05-04 19:57 40.72114 -73.92429 8089 ft 293 kts 28°
2026-05-04 19:57 40.73833 -73.91010 7712 ft 291 kts 28°
2026-05-04 19:58 40.75549 -73.89590 7350 ft 290 kts 28°
2026-05-04 19:58 40.77256 -73.88177 7020 ft 289 kts 28°
2026-05-04 19:58 40.78958 -73.86767 6704 ft 289 kts 28°
2026-05-04 19:58 40.80659 -73.85355 6336 ft 288 kts 28°
2026-05-04 19:59 40.82353 -73.83948 6001 ft 287 kts 29°
2026-05-04 19:59 40.84043 -73.82544 5662 ft 286 kts 29°
2026-05-04 19:59 40.85730 -73.81143 5303 ft 286 kts 29°
2026-05-04 19:59 40.87414 -73.79741 5021 ft 283 kts 29°
2026-05-04 20:00 40.89051 -73.78375 4892 ft 273 kts 30°
2026-05-04 20:00 40.90623 -73.77062 4803 ft 260 kts 29°
2026-05-04 20:00 40.92113 -73.75816 4646 ft 247 kts 29°
2026-05-04 20:00 40.93542 -73.74618 4443 ft 240 kts 31°
2026-05-04 20:01 40.94610 -73.73044 4313 ft 225 kts 69°
2026-05-04 20:01 40.94755 -73.71085 3915 ft 215 kts 109°
2026-05-04 20:01 40.93982 -73.69461 3337 ft 208 kts 146°
2026-05-04 20:01 40.92701 -73.68773 3009 ft 196 kts 181°
2026-05-04 20:02 40.91391 -73.69098 2964 ft 191 kts 210°
2026-05-04 20:02 40.90432 -73.70224 2625 ft 184 kts 239°
2026-05-04 20:02 40.89910 -73.71748 2124 ft 185 kts 246°
2026-05-04 20:02 40.89401 -73.73300 1982 ft 184 kts 246°
2026-05-04 20:03 40.88886 -73.74861 1982 ft 187 kts 247°
2026-05-04 20:03 40.88361 -73.76445 1981 ft 185 kts 246°
2026-05-04 20:03 40.87884 -73.77886 1984 ft 159 kts 245°
2026-05-04 20:03 40.87448 -73.79176 1997 ft 146 kts 243°
2026-05-04 20:04 40.86818 -73.80190 1967 ft 143 kts 222°
2026-05-04 20:04 40.85995 -73.80891 1921 ft 140 kts 216°
2026-05-04 20:04 40.85178 -73.81570 1631 ft 137 kts 216°
2026-05-04 20:04 40.84369 -73.82243 1414 ft 139 kts 215°
2026-05-04 20:05 40.83558 -73.82914 1191 ft 137 kts 214°
2026-05-04 20:05 40.82756 -73.83582 989 ft 137 kts 213°
2026-05-04 20:05 40.81953 -73.84254 779 ft 135 kts 213°
2026-05-04 20:05 40.81148 -73.84925 632 ft 139 kts 214°
2026-05-04 20:06 40.80327 -73.85596 395 ft 138 kts 214°
2026-05-04 20:06 40.79526 -73.86248 288 ft 142 kts 214°
2026-05-04 20:06 40.78702 -73.86943 97 ft 138 kts 215°
2026-05-04 20:06 40.77905 -73.87580 15 ft 115 kts 212°
2026-05-04 20:07 40.77490 -73.87926 23 ft 33 kts 211°
2026-05-04 20:07 40.77361 -73.87990 19 ft 16 kts 187°
2026-05-04 20:07 40.77337 -73.87994 19 ft 1 kts 187°
2026-05-04 20:07 40.77290 -73.87980 19 ft 10 kts 145°
2026-05-04 20:08 40.77301 -73.87937 19 ft 8 kts 26°
2026-05-04 20:08 40.77398 -73.87867 23 ft 21 kts 32°
2026-05-04 20:08 40.77522 -73.87764 22 ft 22 kts 34°
2026-05-04 20:08 40.77603 -73.87656 23 ft 14 kts 89°
2026-05-04 20:09 40.77663 -73.87564 23 ft 15 kts 33°
2026-05-04 20:09 40.77740 -73.87436 19 ft 20 kts 74°
2026-05-04 20:09 40.77753 -73.87255 19 ft 18 kts 110°
2026-05-04 20:09 40.77688 -73.87086 17 ft 27 kts 122°
2026-05-04 20:10 40.77611 -73.86955 13 ft 7 kts 177°
2026-05-04 20:10 40.77553 -73.87002 16 ft 17 kts 213°
2026-05-04 20:10 40.77491 -73.87006 15 ft 5 kts 112°
2026-05-04 20:10 40.77478 -73.86977 15 ft 0 kts 120°
2026-05-04 20:13 40.77478 -73.86978 15 ft 0 kts 120°